Wind_Speed
28 28 29 30 30 31 31 32 32 33 35 36 39 41 43 45 46 47 48 49 49 49 50 50 50 49 49 48 48 48 48 48 49 49 50 51 51 52 53 54 54 53 51 52 53 54 54 55 55 57 58 59 60 60 61 62 62 61 61 61 61 60
27 27 27 28 29 30 31 32 33 33 34 35 36 38 40 42 44 46 47 49 50 51 51 51 52 52 52 51 51 51 50 50 51 51 52 52 53 53 55 56 55 55 54 54 54 55 55 55 56 57 59 60 61 62 62 63 62 62 62 62 61 61
27 26 26 27 28 29 30 32 33 35 35 36 36 37 38 39 41 43 45 47 49 51 52 52 53 54 54 54 53 52 52 53 53 54 54 54 54 55 56 56 56 56 56 56 56 56 57 57 57 58 59 61 62 62 63 63 63 63 62 62 61 61
27 27 27 27 28 29 30 32 33 35 36 37 38 39 39 40 40 41 43 45 48 50 52 53 54 55 56 56 55 54 54 55 55 55 56 56 56 56 57 57 58 58 58 58 58 58 59 59 59 59 60 61 62 63 64 64 63 63 62 62 61 60
28 27 27 27 28 29 30 31 33 34 36 37 38 39 40 41 41 41 42 44 46 49 51 53 55 56 57 57 57 57 56 57 57 57 57 57 57 57 58 59 59 59 60 60 60 60 60 60 60 60 61 62 63 64 64 63 62 62 62 61 60 59
29 29 29 29 29 30 31 32 33 35 36 37 38 39 40 41 41 42 42 44 46 47 49 51 54 56 57 58 58 58 58 58 58 58 58 58 58 59 59 60 60 60 61 61 61 61 62 62 62 61 61 62 63 64 63 62 62 62 61 60 59 58
30 31 31 31 32 32 33 34 35 36 37 38 39 40 41 42 43 43 43 44 45 47 48 50 52 54 56 58 59 60 60 60 59 59 59 58 59 59 60 61 61 61 61 61 62 62 63 63 63 62 62 62 63 63 62 61 61 61 60 59 58 56
31 32 33 34 35 36 36 37 38 38 39 39 40 41 42 43 44 45 45 45 46 46 47 49 51 53 56 58 60 61 62 62 61 61 60 59 59 60 60 61 61 61 61 62 62 63 63 63 63 62 61 61 62 62 62 61 61 60 59 58 55 53
33 33 34 36 37 38 39 39 40 40 40 41 41 42 43 44 45 46 47 48 48 49 49 50 51 54 56 59 61 62 63 64 64 63 62 61 61 61 61 61 61 61 61 61 62 62 62 62 63 63 61 61 62 62 61 61 60 59 56 54 53 52
37 37 38 38 37 38 38 39 40 41 41 42 42 43 44 45 46 47 49 50 51 52 52 53 53 55 57 59 61 63 64 64 65 64 64 63 63 62 62 62 62 62 62 62 61 61 62 62 63 63 62 62 62 61 60 59 57 55 53 53 53 55
39 39 38 37 36 36 36 37 39 40 41 43 44 45 46 46 47 48 50 51 52 54 55 55 56 56 58 60 62 63 64 64 65 64 64 64 63 63 62 62 62 62 62 62 62 61 61 62 62 62 61 61 61 60 58 57 55 54 54 55 57 58
39 38 38 38 38 38 38 39 40 41 42 44 45 46 47 47 48 49 50 52 53 54 55 56 57 57 59 60 62 63 64 64 64 64 64 63 63 63 63 62 62 62 62 62 62 62 61 61 61 61 60 60 59 58 57 56 56 56 57 58 59 60
41 41 41 41 41 41 41 42 42 43 43 44 45 45 46 47 48 50 51 52 53 54 55 56 57 58 59 60 62 63 64 64 64 64 63 63 63 63 63 62 62 62 62 62 62 62 62 62 62 61 61 60 59 58 58 57 58 58 59 60 60 59
43 43 43 42 42 43 43 43 43 44 44 45 45 46 46 47 48 49 50 51 52 53 54 55 56 57 58 59 60 61 62 63 63 63 63 63 63 62 62 62 61 61 61 61 61 61 61 61 61 61 60 59 59 58 58 59 59 60 60 59 58 57
42 42 42 43 43 43 43 43 43 43 44 44 45 46 47 48 49 50 50 51 51 52 53 54 55 56 57 57 58 58 59 60 61 61 62 62 62 61 60 60 59 59 59 59 60 60 59 59 58 58 58 58 58 59 59 60 60 59 58 57 56 57
41 42 42 43 43 43 43 43 44 44 44 44 45 45 46 47 48 49 50 50 51 51 52 52 53 54 56 56 56 57 57 58 58 59 60 59 59 59 58 58 58 58 58 58 58 58 57 57 57 57 58 58 59 59 60 59 58 57 57 57 57 58
41 42 42 42 42 43 44 44 44 44 45 45 45 44 45 45 45 46 47 48 49 50 50 51 52 53 55 56 57 57 58 58 59 59 60 59 59 58 57 57 57 57 57 57 57 57 57 56 57 57 58 58 59 59 58 58 57 57 58 58 58 56
40 41 41 42 42 43 44 44 44 44 44 44 43 42 42 43 43 44 44 45 47 47 49 50 51 53 55 56 57 58 59 60 60 61 61 60 60 59 58 58 58 57 57 57 56 56 56 56 56 57 58 58 58 58 58 58 59 59 58 56 53 50
39 40 41 42 43 43 43 44 44 43 42 42 42 41 41 41 42 43 43 44 46 46 47 49 51 52 54 56 57 59 60 61 62 62 62 62 61 59 58 57 57 56 56 56 56 56 56 57 58 58 59 59 59 59 59 59 58 56 53 50 48 46
40 41 43 44 44 44 43 43 42 41 40 41 42 42 43 44 44 45 46 46 47 47 48 49 50 51 53 54 56 58 59 60 61 62 62 62 61 60 58 58 57 57 57 57 57 58 58 59 59 59 59 59 58 58 57 55 52 49 47 46 45 45
42 45 46 46 46 45 44 43 43 42 42 43 45 46 47 48 48 48 49 49 49 49 49 50 50 51 52 53 55 56 58 59 60 61 61 60 60 59 59 58 58 57 57 57 57 57 57 57 57 57 57 56 55 53 51 49 47 45 44 44 44 45
46 48 49 49 48 47 46 46 45 46 46 47 49 51 52 52 51 49 48 49 49 50 51 51 51 51 52 52 54 55 56 58 59 60 60 60 60 59 59 58 57 56 56 56 56 56 56 55 55 54 53 51 49 47 45 44 43 43 43 44 45 46
49 50 50 50 49 48 48 48 49 50 51 51 51 51 51 51 50 48 47 47 48 50 51 51 51 51 51 52 53 54 56 57 58 59 59 59 59 59 59 59 58 57 56 56 55 54 53 51 50 48 47 45 43 42 42 42 42 43 44 46 47 49
49 50 49 49 49 49 49 50 50 50 50 49 48 47 46 46 46 45 45 46 47 49 50 50 51 51 52 52 53 54 54 55 56 56 57 57 56 56 55 55 55 54 53 51 49 47 45 44 43 42 41 41 41 41 42 43 44 46 47 49 50 52
47 48 48 48 48 48 48 47 47 46 45 44 43 42 42 42 42 41 42 44 45 47 48 49 50 50 51 51 51 51 51 50 51 51 51 51 50 50 49 48 47 46 45 43 42 41 40 40 40 40 41 41 42 43 44 46 47 49 50 52 53 55
44 46 47 47 47 46 45 44 43 42 42 41 41 40 40 40 40 39 40 41 42 43 45 46 46 47 47 48 47 47 47 46 46 47 47 46 46 45 44 43 42 41 40 39 39 39 40 40 41 42 43 44 45 46 48 49 50 52 53 54 55 57
43 44 45 45 45 45 44 43 43 43 43 43 43 43 42 41 40 39 39 39 40 40 41 42 43 44 44 45 45 45 45 45 45 45 44 43 42 41 41 40 40 40 40 40 41 41 42 42 43 45 46 47 49 50 50 51 53 54 55 56 57 58
42 43 43 44 45 45 45 46 46 46 47 46 46 45 44 43 42 41 40 40 40 40 41 41 42 43 43 44 44 44 44 44 45 44 44 43 42 42 41 42 42 42 42 43 43 44 45 45 46 48 49 50 51 52 52 53 54 55 56 57 58 59
41 42 43 43 45 45 46 48 48 48 48 47 47 46 45 44 43 42 41 41 41 41 41 41 42 42 43 44 44 45 45 45 45 45 45 45 44 44 44 44 44 44 45 45 46 46 47 48 49 50 51 52 52 53 54 54 55 56 57 58 60 61
41 42 42 43 44 45 46 47 47 48 48 48 48 47 46 45 44 43 42 42 41 41 41 41 42 42 43 43 44 45 45 46 46 47 47 47 47 47 47 47 47 47 47 47 48 48 49 49 50 51 52 53 54 54 55 56 57 58 59 60 61 62
41 42 43 44 45 45 46 46 47 48 48 48 49 49 48 47 46 45 44 43 42 42 42 42 43 43 43 44 44 45 46 46 47 48 49 49 49 49 49 49 49 49 50 50 50 51 51 51 52 53 54 55 55 56 57 57 58 59 60 61 62 63
42 43 44 45 45 46 46 47 47 48 48 49 50 50 50 49 49 48 47 45 44 44 44 44 44 44 44 45 45 46 47 48 49 50 50 50 50 50 50 51 51 51 52 52 52 53 53 53 54 55 56 56 57 57 58 58 59 60 61 61 63 64
44 45 46 46 46 47 47 47 48 48 49 50 50 51 51 51 50 50 49 49 48 48 47 47 47 46 47 47 48 48 49 50 51 51 51 51 51 52 52 52 53 54 54 54 55 55 55 55 56 57 57 58 58 59 59 60 61 61 62 62 63 64
46 47 47 47 48 48 48 48 48 49 49 50 50 51 51 51 51 51 51 51 50 50 50 50 50 50 51 51 51 52 52 52 52 52 52 53 53 54 54 55 55 56 57 57 57 58 58 58 58 59 60 60 61 61 61 62 62 63 64 64 65 65
47 47 48 49 50 49 49 50 50 50 50 51 51 52 51 52 52 52 52 52 52 52 52 53 53 53 54 54 54 54 54 54 54 55 55 55 56 57 57 58 59 59 60 60 60 60 61 61 61 61 62 62 63 63 64 64 65 66 66 67 67 67
48 48 49 50 50 51 51 51 51 51 52 52 52 53 53 53 53 53 53 53 54 54 54 55 55 55 55 56 56 56 57 57 57 58 58 59 59 60 60 61 62 62 63 63 63 63 64 64 64 64 65 65 66 66 67 67 68 68 69 69 69 69
49 49 50 50 51 52 52 52 53 53 53 53 53 53 54 54 54 54 54 55 55 56 56 56 56 57 57 58 58 58 59 60 60 60 61 61 62 63 63 64 64 65 65 65 66 66 66 66 66 67 67 68 68 69 70 70 70 70 71 71 71 70
49 50 50 51 52 53 53 53 54 54 54 55 55 55 55 55 55 55 56 56 57 57 57 58 58 59 60 60 61 61 61 62 62 62 63 63 64 65 66 66 67 67 67 68 68 68 68 68 68 69 69 70 71 72 72 73 72 72 72 72 71 71
Wind_Direction
268 269 271 273 275 276 276 277 278 279 279 278 277 277 277 276 275 274 271 270 270 271 272 272 272 272 272 272 272 271 272 272 272 272 272 273 274 274 275 276 277 277 277 276 276 277 278 278 279 280 282 283 284 285 286 287 289 290 292 293 293 294
269 271 274 276 278 280 280 280 280 280 280 279 279 278 277 277 276 275 273 271 269 269 269 270 271 271 272 272 272 272 273 273 273 273 273 273 274 274 274 275 276 277 277 276 276 277 278 278 279 280 281 283 284 285 286 287 289 290 291 292 293 294
269 273 276 279 281 283 284 284 283 282 281 279 278 278 277 277 276 275 274 272 270 269 268 268 269 270 271 271 271 272 273 274 274 274 274 274 274 274 274 275 276 276 276 277 277 277 278 278 279 280 281 282 283 284 285 287 288 290 291 291 292 293
267 271 274 277 280 282 283 284 284 283 282 281 279 278 277 277 276 276 275 274 273 271 269 268 268 268 270 271 272 272 273 273 274 275 275 276 276 275 275 276 276 276 276 277 277 277 278 278 279 279 280 281 282 283 285 286 288 289 289 290 291 292
269 271 272 274 277 279 281 282 283 283 283 282 281 280 279 279 278 278 277 276 275 274 273 271 270 269 269 270 271 272 272 273 274 275 276 277 277 277 276 276 276 277 277 277 277 277 277 278 278 279 280 281 282 283 284 286 287 287 288 289 290 291
271 273 275 277 278 280 281 282 282 283 282 282 282 282 281 281 281 280 279 278 276 275 275 274 272 271 271 270 270 271 271 272 273 274 275 276 276 276 276 276 277 277 277 277 277 277 277 278 278 279 280 281 282 283 284 285 286 287 288 289 289 289
272 275 279 281 282 283 283 283 283 283 283 283 283 282 282 281 281 281 280 279 279 278 277 276 275 274 273 272 271 271 271 271 272 273 274 275 275 275 275 275 276 276 276 277 277 277 277 278 278 279 280 281 282 283 284 285 286 287 288 288 288 288
271 275 279 282 284 286 286 285 285 284 282 282 281 281 280 280 279 279 279 279 279 279 278 277 276 275 274 273 272 272 271 271 271 272 273 273 274 274 274 274 275 275 275 275 276 276 277 278 279 279 280 281 282 283 284 285 286 286 286 286 286 286
273 276 279 282 283 284 286 286 285 285 283 282 281 280 279 279 279 278 278 277 277 276 276 276 275 274 274 273 272 272 272 272 272 272 272 272 273 273 273 274 274 274 274 275 275 276 277 278 278 279 279 280 282 283 284 285 285 285 285 285 285 286
274 277 279 280 281 282 284 286 286 286 286 285 283 282 281 280 279 278 277 276 275 274 274 274 274 273 273 273 272 272 272 272 272 272 272 272 272 272 272 273 273 274 274 275 275 276 277 278 278 280 281 281 282 283 284 284 284 284 283 284 286 288
275 277 279 280 281 281 282 283 284 284 285 285 284 283 282 281 279 278 276 275 274 273 273 273 273 272 272 272 272 272 272 272 272 272 272 272 273 273 273 273 274 274 275 275 276 276 277 278 279 281 282 282 283 283 283 283 282 282 283 285 288 290
275 276 277 278 279 281 282 283 284 284 283 283 283 282 282 281 280 279 278 277 276 275 274 273 272 272 271 271 271 272 272 272 272 272 272 273 273 274 274 274 275 275 275 276 277 278 278 279 280 281 282 282 282 282 282 282 282 283 285 288 290 292
274 275 277 279 281 283 284 285 285 284 283 282 282 281 280 280 279 279 279 278 278 277 277 276 275 274 273 273 272 272 272 272 273 273 274 274 274 275 275 275 276 276 277 277 278 279 279 280 280 281 281 281 281 282 282 283 284 286 288 290 291 293
275 277 279 282 284 285 285 285 285 284 284 284 283 282 281 280 280 280 280 280 280 279 278 278 277 277 277 276 276 275 274 274 274 274 275 275 276 276 276 277 277 277 277 278 278 279 280 280 281 281 281 282 282 283 283 285 286 288 290 291 293 294
277 280 282 284 285 286 286 286 286 285 284 284 284 283 283 282 282 282 283 283 283 282 281 280 280 280 280 280 279 279 278 277 276 276 276 276 277 277 277 277 277 278 278 279 279 280 280 281 281 281 281 282 283 284 286 287 289 290 292 293 294 294
280 282 284 285 286 287 287 287 286 286 285 285 284 284 284 284 284 284 285 285 286 286 285 285 283 283 282 282 282 281 280 279 278 277 276 277 277 277 277 277 278 278 278 279 279 280 280 280 281 281 282 283 285 286 288 290 291 292 293 293 293 292
282 283 285 286 287 287 288 287 287 286 286 285 285 285 285 285 285 285 285 286 286 286 286 285 284 283 282 282 283 283 282 281 279 278 276 276 276 276 277 277 277 277 277 277 278 279 280 281 282 283 285 286 288 289 290 291 292 292 292 292 291 290
283 285 286 287 287 287 287 287 287 286 286 285 285 285 285 285 285 284 285 285 284 284 283 282 282 281 281 282 282 283 283 282 280 279 277 276 276 276 276 276 276 276 276 277 278 280 281 283 284 286 287 288 289 290 291 291 291 291 290 290 289 290
284 285 286 286 286 286 286 285 286 286 286 286 286 286 286 286 286 286 286 285 284 283 282 280 279 279 279 280 281 281 281 281 280 280 279 277 276 276 275 276 276 277 278 279 280 282 283 285 286 287 287 288 289 289 289 289 288 288 288 288 289 290
284 285 286 286 285 285 284 285 285 285 286 286 287 287 287 288 288 288 288 288 286 284 282 279 278 278 278 278 279 279 280 281 281 281 281 279 278 276 276 276 277 278 279 281 282 283 284 285 285 286 287 287 287 287 287 286 286 286 287 288 289 289
285 285 284 284 283 284 284 285 285 285 286 287 289 290 290 290 290 290 289 288 286 284 282 280 279 278 278 278 279 279 280 281 282 282 282 281 280 279 278 278 278 279 281 282 283 284 285 285 285 285 285 285 285 285 285 285 285 286 287 288 289 291
284 283 283 282 282 283 284 285 286 286 287 288 290 291 290 290 290 289 288 286 284 283 281 280 279 278 278 279 279 280 281 282 283 283 283 283 283 282 282 282 282 282 283 284 285 286 286 286 284 283 283 283 283 284 284 285 287 288 289 291 293 295
282 282 282 282 283 284 285 285 285 285 286 287 288 288 288 288 288 287 286 284 282 280 280 279 279 278 278 278 279 280 281 282 283 284 285 285 285 285 285 285 285 286 287 287 287 287 286 284 283 283 283 284 285 286 287 289 290 292 293 295 297 298
282 283 283 284 284 285 285 285 285 285 285 285 285 284 284 285 286 286 285 283 281 280 279 279 279 279 279 279 280 281 282 284 285 286 287 287 288 288 288 288 288 288 288 288 287 286 286 285 286 287 288 289 290 291 292 293 295 296 297 298 298 298
285 286 285 285 285 285 285 285 286 286 286 286 285 285 285 286 286 286 284 283 282 281 281 281 281 282 283 284 285 286 287 287 288 288 289 290 290 291 290 290 289 288 288 287 287 287 288 289 290 291 292 292 293 294 295 296 297 297 297 297 297 297
284 284 284 284 285 285 286 286 286 286 286 287 287 287 287 287 287 286 285 284 283 284 284 285 286 287 288 289 291 292 292 292 292 292 292 292 292 292 291 290 290 290 290 290 290 291 292 292 293 293 293 294 294 295 295 296 296 296 296 295 295 295
280 281 281 282 283 284 284 284 284 285 286 287 288 288 288 288 287 286 285 285 285 285 286 287 288 290 291 292 293 294 294 294 294 294 293 293 293 293 293 293 293 293 293 293 293 294 294 294 294 294 294 294 294 294 294 294 294 294 294 294 294 294
278 279 280 280 281 281 282 282 283 285 286 286 287 287 287 287 286 286 286 285 285 285 286 287 288 290 291 292 293 294 294 295 295 294 295 295 295 295 295 295 295 295 295 295 295 295 294 294 294 294 293 293 293 293 293 293 293 293 293 293 293 293
276 277 278 278 279 279 280 281 283 284 285 285 285 285 285 285 284 284 284 284 285 285 285 286 287 288 289 291 292 293 294 294 294 295 295 296 297 297 297 296 296 295 295 295 294 294 294 294 294 293 293 293 293 293 293 293 293 293 293 293 293 293
273 274 275 275 276 277 278 280 281 282 283 284 284 283 283 283 283 283 283 283 283 283 283 284 285 286 287 288 289 290 291 292 293 294 295 295 296 296 295 295 295 294 294 294 294 294 294 294 294 293 293 294 294 293 293 293 293 293 293 293 293 293
271 272 272 272 273 274 276 277 279 280 282 282 282 282 282 282 283 283 283 283 283 282 282 282 282 283 284 285 286 286 288 289 290 291 292 293 293 293 293 293 293 293 293 293 293 293 294 293 293 293 293 293 293 293 293 292 292 292 292 292 292 292
267 268 269 270 271 272 274 275 277 278 280 280 281 282 282 283 284 284 284 284 284 283 282 282 281 281 282 282 283 284 285 286 287 288 289 289 289 290 290 290 290 290 291 291 291 291 291 291 291 291 291 291 291 291 291 291 291 291 291 292 292 292
265 266 267 267 269 270 272 273 275 277 278 279 280 281 281 282 283 283 284 284 283 283 283 282 282 281 281 281 282 283 283 284 285 285 286 286 287 287 287 287 288 288 288 289 289 289 289 289 289 290 289 289 289 289 290 290 291 291 292 292 293 293
265 265 266 267 269 270 271 273 274 275 276 277 278 279 280 281 281 282 282 282 282 282 282 282 282 282 282 282 283 283 284 284 284 284 284 285 285 285 285 286 286 286 286 287 287 288 288 288 288 288 288 289 289 290 290 291 292 292 293 294 294 295
266 267 268 269 271 272 272 273 274 275 275 276 277 277 278 279 279 280 279 280 280 280 280 281 282 282 283 284 284 285 285 284 284 284 284 284 284 284 284 285 285 285 286 286 286 286 287 287 287 287 288 288 289 290 291 292 292 293 294 294 295 295
267 269 269 270 271 272 272 273 273 274 274 274 275 276 277 278 278 279 279 280 281 281 281 282 283 283 284 285 285 285 285 285 285 284 284 284 284 284 284 284 285 285 285 285 286 286 286 287 287 287 288 289 290 291 291 292 293 294 294 294 295 294
266 268 269 270 272 272 272 273 273 273 274 274 275 276 277 278 279 280 281 281 282 282 283 283 284 284 285 285 285 285 285 285 285 286 285 285 285 285 285 285 285 285 285 285 286 286 287 287 287 288 288 289 290 291 292 293 293 294 294 294 294 294
266 268 269 271 272 273 274 274 274 275 275 275 276 277 277 278 279 280 281 281 282 283 284 284 285 285 285 285 286 286 286 286 286 286 286 286 285 285 286 286 286 287 287 287 287 288 288 288 288 289 289 290 291 292 292 293 294 294 294 294 294 293
Height
5808 5809 5809 5810 5810 5811 5812 5812 5813 5813 5813 5814 5815 5815 5816 5816 5816 5816 5816 5816 5816 5816 5816 5815 5815 5815 5815 5816 5815 5815 5815 5815 5815 5814 5814 5813 5812 5812 5810 5809 5808 5808 5808 5807 5805 5804 5803 5802 5800 5798 5796 5795 5793 5792 5790 5787 5786 5784 5782 5780 5778 5776
5804 5805 5805 5806 5807 5807 5808 5808 5809 5809 5809 5810 5810 5810 5811 5811 5811 5812 5812 5812 5812 5811 5811 5810 5810 5809 5809 5809 5809 5809 5809 5809 5809 5809 5808 5808 5807 5806 5804 5803 5803 5802 5801 5800 5799 5798 5797 5796 5794 5793 5791 5788 5786 5785 5783 5781 5780 5778 5776 5774 5772 5770
5800 5801 5802 5802 5803 5803 5804 5804 5805 5805 5805 5805 5805 5805 5805 5806 5806 5806 5806 5806 5806 5806 5806 5805 5804 5803 5803 5803 5803 5804 5804 5803 5803 5803 5802 5802 5801 5800 5799 5797 5797 5796 5795 5794 5793 5792 5791 5790 5788 5787 5785 5783 5780 5778 5776 5775 5774 5772 5770 5768 5766 5764
5796 5797 5798 5799 5799 5800 5800 5800 5801 5801 5801 5801 5801 5801 5801 5800 5800 5800 5801 5801 5801 5801 5801 5800 5800 5799 5798 5798 5798 5798 5798 5797 5797 5796 5796 5796 5795 5794 5793 5792 5791 5790 5789 5788 5787 5786 5784 5783 5782 5780 5779 5776 5774 5772 5770 5769 5768 5766 5764 5762 5760 5758
5792 5793 5794 5794 5795 5796 5796 5796 5796 5797 5796 5796 5796 5796 5796 5795 5795 5795 5795 5796 5795 5795 5795 5795 5794 5794 5793 5792 5792 5792 5791 5791 5790 5790 5790 5790 5789 5788 5787 5785 5784 5783 5782 5782 5781 5780 5778 5777 5775 5774 5772 5769 5767 5766 5764 5763 5762 5759 5758 5756 5754 5752
5787 5788 5788 5789 5790 5791 5791 5791 5792 5792 5792 5792 5791 5791 5791 5790 5790 5790 5790 5790 5789 5789 5789 5789 5789 5788 5787 5787 5786 5785 5785 5784 5784 5783 5783 5783 5782 5781 5780 5779 5777 5777 5776 5775 5775 5773 5771 5770 5769 5768 5766 5764 5761 5759 5758 5757 5755 5753 5752 5750 5748 5746
5783 5783 5783 5783 5784 5785 5785 5786 5786 5786 5786 5786 5786 5786 5786 5786 5785 5785 5785 5784 5784 5783 5783 5783 5783 5782 5782 5781 5780 5779 5778 5778 5777 5777 5776 5776 5775 5774 5773 5772 5771 5770 5769 5768 5767 5766 5764 5763 5762 5761 5760 5757 5755 5753 5752 5751 5749 5747 5746 5744 5742 5740
5778 5779 5779 5779 5779 5779 5779 5779 5780 5780 5781 5781 5781 5781 5780 5780 5780 5780 5779 5779 5778 5777 5777 5776 5776 5775 5775 5774 5774 5773 5772 5771 5771 5770 5769 5769 5768 5767 5766 5765 5764 5763 5763 5762 5760 5759 5758 5756 5755 5755 5754 5751 5749 5747 5746 5744 5743 5741 5739 5738 5736 5734
5773 5774 5774 5774 5774 5774 5774 5774 5774 5775 5775 5776 5776 5776 5776 5775 5775 5775 5774 5773 5772 5771 5770 5770 5769 5768 5768 5767 5767 5766 5765 5765 5764 5763 5763 5762 5761 5760 5759 5758 5757 5756 5756 5755 5753 5752 5751 5750 5748 5747 5747 5745 5743 5741 5739 5738 5736 5735 5733 5732 5730 5729
5768 5768 5768 5768 5769 5769 5770 5770 5770 5770 5771 5771 5771 5771 5770 5770 5770 5769 5768 5767 5766 5765 5764 5763 5762 5762 5761 5760 5760 5759 5759 5758 5757 5757 5756 5755 5754 5753 5752 5751 5750 5749 5749 5748 5747 5746 5745 5743 5741 5740 5739 5738 5736 5734 5733 5731 5730 5729 5727 5726 5725 5723
5762 5763 5763 5764 5764 5764 5765 5765 5766 5766 5765 5765 5765 5764 5764 5764 5763 5762 5762 5761 5760 5758 5757 5756 5756 5755 5754 5754 5753 5753 5752 5752 5751 5750 5750 5749 5748 5747 5746 5745 5744 5743 5742 5740 5740 5739 5738 5736 5735 5734 5732 5731 5729 5728 5727 5725 5724 5723 5721 5720 5719 5717
5757 5757 5758 5759 5759 5759 5760 5760 5760 5760 5760 5759 5759 5758 5758 5757 5756 5756 5755 5754 5753 5752 5751 5750 5749 5748 5748 5747 5746 5746 5745 5745 5744 5743 5743 5742 5741 5740 5739 5738 5737 5736 5735 5733 5732 5732 5731 5729 5728 5727 5726 5724 5723 5722 5721 5719 5718 5717 5715 5714 5712 5710
5751 5752 5752 5753 5754 5754 5754 5754 5754 5754 5753 5753 5753 5752 5752 5751 5750 5749 5748 5747 5747 5746 5745 5744 5743 5742 5741 5740 5739 5738 5738 5737 5737 5736 5736 5735 5734 5733 5732 5731 5730 5729 5727 5726 5725 5724 5723 5722 5721 5720 5719 5717 5716 5715 5714 5713 5711 5710 5709 5707 5705 5703
5746 5746 5747 5748 5748 5748 5748 5748 5748 5747 5747 5746 5746 5746 5746 5745 5744 5743 5742 5741 5740 5739 5738 5737 5736 5735 5734 5733 5732 5731 5731 5730 5729 5729 5728 5728 5727 5726 5725 5724 5723 5722 5720 5719 5718 5717 5716 5714 5713 5713 5712 5711 5709 5708 5707 5706 5705 5703 5702 5700 5698 5696
5740 5741 5741 5742 5742 5742 5741 5741 5741 5740 5740 5740 5739 5739 5739 5738 5737 5736 5735 5735 5734 5733 5732 5731 5730 5729 5728 5727 5726 5725 5724 5724 5723 5722 5721 5720 5719 5718 5718 5717 5716 5715 5713 5712 5711 5710 5709 5708 5706 5706 5705 5704 5703 5701 5700 5699 5697 5696 5694 5693 5691 5689
5735 5735 5735 5735 5735 5736 5735 5735 5734 5734 5733 5733 5733 5733 5732 5732 5731 5730 5729 5728 5727 5727 5726 5725 5724 5723 5722 5721 5720 5719 5718 5717 5716 5715 5714 5713 5712 5711 5711 5710 5709 5708 5707 5706 5704 5703 5702 5701 5700 5699 5698 5697 5696 5694 5693 5691 5690 5689 5687 5686 5684 5682
5729 5728 5729 5729 5729 5730 5729 5729 5728 5727 5727 5727 5727 5726 5726 5725 5725 5724 5723 5722 5721 5720 5720 5718 5718 5716 5715 5714 5713 5712 5712 5710 5709 5708 5707 5707 5706 5705 5704 5703 5703 5701 5700 5699 5698 5697 5696 5694 5693 5692 5691 5690 5689 5687 5686 5684 5683 5682 5680 5678 5676 5675
5722 5723 5723 5723 5723 5723 5723 5722 5722 5721 5721 5721 5721 5721 5720 5720 5719 5718 5717 5716 5715 5714 5713 5712 5711 5710 5709 5708 5706 5705 5704 5703 5702 5701 5700 5700 5699 5698 5697 5696 5695 5694 5693 5692 5691 5690 5689 5688 5686 5685 5684 5682 5681 5680 5678 5677 5676 5674 5673 5671 5669 5668
5716 5716 5716 5716 5716 5716 5716 5716 5716 5716 5716 5715 5715 5715 5714 5714 5713 5712 5711 5710 5708 5708 5707 5706 5705 5704 5702 5701 5700 5699 5697 5696 5695 5694 5693 5693 5692 5691 5690 5689 5688 5687 5686 5686 5685 5684 5683 5681 5679 5678 5677 5675 5674 5673 5671 5670 5668 5667 5666 5664 5663 5661
5710 5710 5710 5710 5709 5709 5709 5710 5710 5711 5711 5710 5710 5710 5709 5708 5707 5706 5705 5703 5702 5701 5700 5699 5698 5697 5696 5695 5693 5692 5691 5690 5689 5688 5687 5686 5685 5684 5683 5683 5682 5681 5680 5679 5678 5676 5675 5673 5672 5670 5669 5667 5666 5665 5664 5662 5661 5660 5659 5658 5656 5655
5704 5704 5704 5704 5703 5703 5704 5704 5704 5705 5705 5705 5704 5703 5703 5702 5701 5700 5699 5697 5695 5694 5693 5692 5691 5690 5689 5688 5687 5686 5685 5684 5683 5681 5680 5679 5678 5678 5677 5676 5675 5674 5673 5672 5671 5670 5668 5666 5664 5663 5661 5660 5659 5658 5657 5656 5655 5654 5653 5651 5650 5649
5699 5699 5699 5698 5698 5698 5698 5698 5699 5699 5699 5699 5698 5697 5696 5695 5694 5694 5692 5691 5689 5687 5686 5685 5684 5683 5682 5681 5680 5679 5678 5677 5676 5675 5674 5673 5672 5671 5670 5669 5668 5667 5666 5665 5664 5663 5661 5659 5657 5655 5654 5653 5652 5651 5650 5649 5648 5647 5646 5645 5643 5641
5693 5693 5693 5693 5693 5693 5693 5693 5693 5693 5693 5693 5692 5690 5689 5688 5687 5686 5685 5684 5683 5681 5679 5678 5677 5676 5675 5674 5673 5672 5670 5669 5668 5667 5667 5666 5665 5664 5663 5662 5661 5660 5659 5658 5656 5655 5654 5652 5650 5648 5647 5647 5646 5645 5644 5643 5642 5641 5639 5638 5636 5634
5688 5688 5688 5688 5688 5687 5687 5687 5687 5686 5686 5685 5685 5684 5683 5681 5681 5680 5679 5678 5676 5675 5673 5672 5671 5670 5669 5667 5667 5666 5664 5663 5662 5661 5660 5659 5658 5657 5656 5655 5653 5652 5651 5650 5649 5648 5646 5645 5643 5642 5641 5640 5640 5638 5637 5636 5635 5633 5632 5631 5629 5627
5682 5682 5682 5682 5682 5682 5681 5681 5680 5680 5679 5679 5678 5678 5677 5676 5675 5674 5673 5672 5671 5669 5668 5667 5666 5664 5663 5662 5661 5660 5659 5658 5657 5655 5654 5653 5652 5651 5650 5648 5647 5646 5645 5644 5642 5641 5640 5639 5638 5636 5635 5634 5633 5632 5630 5629 5628 5627 5625 5623 5622 5620
5677 5677 5676 5676 5675 5675 5675 5675 5675 5674 5674 5673 5673 5672 5671 5670 5669 5668 5668 5667 5666 5665 5663 5662 5661 5660 5658 5657 5656 5655 5654 5652 5651 5650 5648 5647 5646 5645 5643 5642 5641 5640 5639 5638 5636 5635 5634 5633 5631 5630 5628 5627 5626 5625 5624 5622 5621 5619 5618 5616 5615 5613
5671 5670 5670 5670 5669 5669 5669 5669 5668 5668 5668 5667 5667 5666 5665 5664 5664 5663 5662 5661 5660 5659 5658 5657 5656 5655 5653 5652 5651 5650 5648 5647 5646 5645 5643 5642 5641 5639 5638 5637 5635 5634 5633 5632 5630 5629 5628 5627 5625 5623 5622 5621 5619 5618 5617 5615 5614 5612 5611 5609 5608 5606
5664 5664 5664 5664 5663 5663 5663 5662 5662 5662 5661 5661 5661 5660 5659 5659 5658 5657 5656 5655 5655 5654 5652 5651 5650 5649 5648 5647 5646 5645 5644 5642 5641 5640 5638 5637 5636 5634 5633 5632 5630 5629 5627 5626 5624 5623 5622 5621 5619 5617 5615 5614 5613 5612 5610 5609 5607 5606 5604 5602 5601 5599
5658 5658 5658 5658 5657 5657 5657 5656 5656 5656 5655 5654 5654 5653 5653 5652 5652 5651 5650 5649 5648 5647 5646 5645 5644 5643 5642 5641 5640 5639 5638 5637 5636 5634 5633 5632 5631 5629 5627 5626 5624 5623 5621 5620 5619 5618 5616 5615 5613 5611 5609 5607 5607 5605 5604 5602 5601 5599 5597 5595 5593 5591
5652 5652 5651 5651 5651 5651 5650 5650 5650 5649 5649 5648 5648 5647 5646 5646 5645 5644 5643 5642 5641 5640 5640 5639 5637 5637 5636 5635 5634 5633 5632 5631 5630 5628 5627 5626 5625 5623 5622 5620 5618 5617 5616 5614 5613 5611 5610 5608 5606 5604 5602 5601 5600 5598 5597 5595 5593 5591 5590 5588 5585 5583
5645 5645 5645 5644 5644 5644 5643 5643 5643 5643 5642 5642 5641 5641 5640 5639 5638 5637 5636 5635 5635 5634 5633 5632 5631 5630 5629 5628 5627 5626 5625 5624 5623 5622 5621 5620 5619 5617 5615 5614 5612 5610 5609 5608 5606 5605 5604 5602 5599 5597 5596 5594 5593 5591 5589 5587 5586 5584 5582 5580 5578 5575
5638 5638 5638 5637 5637 5637 5636 5636 5636 5636 5636 5635 5635 5634 5633 5632 5632 5631 5630 5629 5628 5627 5627 5626 5625 5624 5623 5621 5620 5619 5618 5617 5616 5615 5613 5612 5611 5610 5608 5607 5605 5603 5602 5601 5599 5598 5597 5595 5592 5590 5589 5587 5585 5583 5581 5579 5578 5576 5574 5572 5569 5567
5631 5630 5630 5630 5630 5629 5629 5629 5629 5629 5628 5628 5628 5627 5626 5626 5625 5624 5623 5622 5621 5620 5620 5619 5618 5617 5616 5615 5614 5612 5611 5610 5608 5607 5606 5604 5603 5602 5601 5599 5598 5596 5595 5593 5592 5590 5589 5588 5586 5583 5581 5579 5578 5575 5573 5571 5569 5567 5565 5563 5561 5558
5624 5623 5623 5623 5623 5622 5622 5622 5622 5622 5621 5621 5620 5620 5619 5618 5618 5617 5616 5615 5614 5614 5613 5612 5611 5610 5609 5608 5607 5605 5604 5603 5601 5600 5599 5597 5596 5594 5593 5591 5590 5588 5587 5586 5584 5582 5581 5580 5578 5576 5573 5571 5569 5567 5565 5563 5561 5558 5556 5554 5552 5550
5617 5617 5617 5617 5616 5616 5616 5615 5615 5615 5614 5613 5613 5612 5612 5611 5610 5610 5609 5608 5607 5607 5606 5605 5604 5603 5602 5601 5599 5598 5597 5596 5594 5593 5592 5590 5589 5587 5585 5584 5582 5581 5579 5577 5576 5574 5573 5571 5570 5568 5565 5563 5560 5558 5556 5554 5552 5550 5547 5545 5543 5541
5610 5610 5610 5609 5609 5609 5609 5608 5608 5608 5607 5606 5606 5605 5605 5604 5603 5603 5602 5601 5601 5600 5599 5598 5597 5596 5595 5594 5593 5591 5590 5589 5588 5587 5585 5583 5582 5580 5578 5577 5575 5573 5571 5569 5568 5566 5565 5563 5561 5560 5557 5555 5552 5549 5546 5544 5543 5541 5538 5535 5533 5531
5603 5603 5602 5602 5602 5602 5601 5601 5601 5600 5600 5600 5599 5599 5598 5597 5597 5596 5595 5595 5594 5593 5592 5591 5590 5589 5588 5587 5585 5584 5583 5582 5581 5579 5578 5576 5575 5573 5571 5569 5567 5565 5563 5561 5559 5558 5556 5555 5553 5551 5549 5546 5543 5540 5537 5535 5533 5531 5528 5525 5523 5520
5596 5595 5595 5595 5595 5594 5594 5594 5593 5593 5593 5592 5592 5592 5591 5590 5590 5589 5588 5587 5587 5586 5585 5584 5583 5582 5581 5579 5578 5577 5576 5574 5573 5571 5570 5568 5566 5565 5563 5561 5558 5556 5554 5552 5550 5549 5547 5545 5543 5541 5539 5536 5534 5531 5528 5526 5523 5520 5517 5515 5512 5510